Home   Weather   Bloomington   Past weeks

Flag for USA Past Weather in Bloomington, Illinois, USA — Yesterday and Last 2 Weeks

Now
20 °F

Clear.


Feels Like: 6 °F
Forecast: 17 / 23 °F
Wind: 16 mph from West

Location: Bloomington / Normal

Current Time: Dec 8, 2016 at 3:48:34 am

Latest Report: Dec 8, 2016 at 1:56 am


Visibility: 10 mi

Pressure: 30.33 "Hg

Humidity: 74%

Dew Point: 13 °F

Location of BloomingtonLocation

Past Weather in Bloomington — Graph

°F

Bloomington Temperature Yesterday

Maximum temperature yesterday: 34 °F (at 11:56 am)
Minimum temperature yesterday: 21 °F (at 11:56 pm)
Average temperature yesterday: 28 °F

High & Low Weather Summary for the Past Weeks

 TemperatureHumidityPressure
High57 °F (Nov 29, 1:56 pm)100% (Nov 23, 12:56 pm)30.48 "Hg (Nov 23, 12:56 pm)
Low20 °F (Dec 8, 1:56 am)58% (Dec 7, 10:56 am)29.30 "Hg (Nov 28, 6:56 pm)
Average37 °F86%30.07 "Hg
* Reported Nov 23 1:56 am — Dec 8 1:56 am, Bloomington, Weather by CustomWeather, © 2016

Note: Actual official high and low records may vary slightly from our data, if they occured in-between our weather recording intervals... More about our weather records

Advertising

Bloomington Weather History for the Previous 24 Hours

Scroll right to see more
 ConditionsComfort  
Time TempWeatherWind HumidityBarometerVisibility
1:56 am
Thu, Dec 8
20 °FClear.16 mph74%30.33 "Hg10 mi
12:56 am21 °FClear.17 mph71%30.33 "Hg10 mi
11:56 pm
Wed, Dec 7
21 °FPassing clouds.20 mph74%30.32 "Hg10 mi
10:56 pm23 °FPassing clouds.22 mph68%30.33 "Hg10 mi
9:56 pm24 °FPartly cloudy.21 mph71%30.32 "Hg10 mi
8:56 pm25 °FOvercast.24 mph72%30.30 "Hg10 mi
7:56 pm26 °FOvercast.16 mph71%30.30 "Hg10 mi
6:56 pm27 °FPassing clouds.14 mph72%30.29 "Hg10 mi
5:56 pm27 °FClear.12 mph75%30.29 "Hg10 mi
4:56 pm29 °FClear.14 mph69%30.27 "Hg10 mi
3:56 pm30 °FOvercast.13 mph66%30.26 "Hg10 mi
2:56 pm32 °FPassing clouds.13 mph64%30.24 "Hg10 mi
1:56 pm32 °FPassing clouds.15 mph64%30.22 "Hg10 mi
12:56 pm33 °FSunny.13 mph61%30.21 "Hg10 mi
11:56 am34 °FSunny.13 mph59%30.23 "Hg10 mi
10:56 am33 °FSunny.12 mph58%30.24 "Hg10 mi
9:56 am30 °FPartly sunny.10 mph66%30.25 "Hg10 mi
8:56 am29 °FScattered clouds.9 mph69%30.24 "Hg10 mi
7:56 am27 °FPartly sunny.9 mph69%30.21 "Hg10 mi
6:56 am27 °FPassing clouds.9 mph69%30.18 "Hg10 mi
5:56 am27 °FOvercast.16 mph72%30.20 "Hg10 mi
4:56 am27 °FPassing clouds.14 mph72%30.18 "Hg10 mi
3:56 am27 °FClear.13 mph69%30.16 "Hg10 mi
Weather by CustomWeather, © 2016

See weather overviewHow to use our weather pages